Location: Windsor
(43.2292°N, 89.3015°W)
Time: 22:23:39
(UTC+00:00)

MOZHAYETS 4 - Pass Details

Date: 09 July 2022
Orbit: 659 x 679 km, 98.2° (Epoch: 07 August)

Event Time Altitude Azimuth Distance (km) Brightness Sun altitude
Exits shadow 07:01:43 - 115° (ESE) 2,549 10.6 -23.0°
Reaches altitude 10° 07:03:14 10° 103° (ESE) 2,102 10.3 -23.0°
Maximum altitude 07:06:12 17° 63° (ENE) 1,668 10.2 -22.8°
Drops below altitude 10° 07:09:09 10° 22° (NNE) 2,104 11.4 -22.7°
Sets 07:12:02 0° 3° (N) 3,018 12.4 -22.5°
